This is the latest recevied weather packets stored in our database for station/object KI2K. If no packets are shown the sender has not sent any weather packets the latest 10 day(s).
| Time | Temp. | Humidity | Pressure | Rain* | Wind** | Luminosity | Snow |
|---|---|---|---|---|---|---|---|
| 1777729282 | 10° C | 56% | 1019.1 hPa | 0 mm | - | 393 W/m² | - |
| 1777728979 | 9.44° C | 59% | 1019.1 hPa | 0 mm | - | 384 W/m² | - |
| 1777728675 | 8.89° C | 57% | 1019 hPa | 0 mm | - | 364 W/m² | - |
| 1777728373 | 8.89° C | 59% | 1018.8 hPa | 0 mm | - | 343 W/m² | - |
| 1777728070 | 8.89° C | 58% | 1019 hPa | 0 mm | - | 316 W/m² | - |
| 1777727766 | 8.33° C | 59% | 1018.8 hPa | 0 mm | - | 313 W/m² | - |
| 1777727464 | 7.78° C | 60% | 1018.5 hPa | 0 mm | - | 296 W/m² | - |
| 1777727161 | 7.78° C | 58% | 1018.7 hPa | 0 mm | - | 281 W/m² | - |
| 1777726859 | 7.78° C | 61% | 1018.6 hPa | 0 mm | - | 246 W/m² | - |
| 1777726555 | 7.22° C | 62% | 1018.6 hPa | 0 mm | - | 200 W/m² | - |
| 1777726252 | 6.67° C | 64% | 1018.5 hPa | 0 mm | - | 116 W/m² | - |
| 1777725949 | 6.67° C | 66% | 1018.7 hPa | 0 mm | - | 160 W/m² | - |
| 1777725646 | 7.22° C | 65% | 1018.7 hPa | 0 mm | - | 120 W/m² | - |
| 1777725344 | 6.67° C | 68% | 1018.6 hPa | 0 mm | - | 152 W/m² | - |
| 1777725040 | 6.11° C | 73% | 1018.4 hPa | 0 mm | - | 163 W/m² | - |
| 1777724737 | 5° C | 76% | 1018.2 hPa | 0 mm | - | 134 W/m² | - |
| 1777724435 | 4.44° C | 77% | 1018.5 hPa | 0 mm | - | 77 W/m² | - |
| 1777724132 | 4.44° C | 79% | 1018.2 hPa | 0 mm | - | 41 W/m² | - |
| 1777723829 | 4.44° C | 80% | 1018.4 hPa | 0 mm | - | 43 W/m² | - |
| 1777723525 | 4.44° C | 82% | 1018.2 hPa | 0 mm | - | 33 W/m² | - |
| 1777723222 | 4.44° C | 82% | 1018.2 hPa | 0 mm | - | 30 W/m² | - |
| 1777722920 | 4.44° C | 82% | 1017.8 hPa | 0 mm | - | 27 W/m² | - |
| 1777722616 | 4.44° C | 82% | 1017.9 hPa | 0 mm | - | 22 W/m² | - |
| 1777722313 | 4.44° C | 81% | 1017.8 hPa | 0 mm | - | 23 W/m² | - |
| 1777722010 | 4.44° C | 81% | 1017.8 hPa | 0 mm | - | 20 W/m² | - |
* Rain latest hour (hover to see other rain measurements)
** Current wind speed in m/s (hover to see current wind gust speed)